Location: Unspecified
(0.0000°N, 0.0000°E)
Time: 06:42:26
(UTC+00:00)

Explorer 7 - All Passes

Search period start: 26 August 2016 00:00
Search period end: 05 September 2016 00:00
Orbit: 486 x 686 km, 50.3° (Epoch: 25 August)

Date Brightness Start Highest point End Pass type
(mag) Time Alt. Az. Time Alt. Az. Time Alt. Az.
26 Aug - 11:30:04 10° WSW 11:33:35 40° NW 11:37:10 10° NNE daylight
26 Aug - 21:52:46 10° N 21:56:19 20° NE 21:59:52 10° E night (unlit)
26 Aug - 23:32:25 10° WNW 23:36:53 34° SW 23:41:18 10° SSE night (unlit)
27 Aug - 09:56:41 10° S 09:59:30 20° SE 10:02:18 10° E daylight
27 Aug - 11:37:20 10° W 11:39:52 17° NW 11:42:25 10° N daylight
27 Aug - 21:58:01 10° NNW 22:02:35 39° NE 22:07:10 10° ESE night (unlit)
27 Aug - 23:39:54 10° W 23:43:09 17° SW 23:46:23 10° S night (unlit)
28 Aug - 10:02:08 10° SSW 10:05:45 47° SE 10:09:22 10° NE daylight
28 Aug - 22:03:55 10° NNW 22:08:50 80° NE 22:13:46 10° SE night (unlit)
29 Aug - 10:08:16 10° SW 10:12:00 65° NW 10:15:43 10° NNE daylight
29 Aug - 20:32:02 10° NNE 20:34:30 14° NE 20:36:59 10° E night (unlit)
29 Aug - 22:10:19 10° NW 22:15:05 49° SW 22:19:51 10° SSE night (unlit)
30 Aug - 08:35:59 10° SSE 08:37:51 13° SE 08:39:42 10° E daylight
30 Aug - 10:15:03 10° WSW 10:18:15 26° NW 10:21:24 10° N daylight
30 Aug - 20:36:40 10° N 20:40:47 27° NE 20:44:57 10° ESE visible
30 Aug - 22:17:20 10° WNW 22:21:20 25° SW 22:25:21 10° S night (unlit)
31 Aug - 08:40:47 10° S 08:44:09 30° SE 08:47:27 10° ENE daylight
31 Aug - 10:23:14 10° WNW 10:24:30 11° NW 10:25:48 10° NNW daylight
31 Aug - 20:42:16 10° NNW 20:47:02 55° NE 20:51:52 10° SE visible
31 Aug - 22:25:34 10° WSW 22:27:39 13° SW 22:29:45 10° SSW night (unlit)
01 Sep - 08:46:36 10° SSW 08:50:24 76° SE 08:54:07 10° NE daylight
01 Sep - 20:48:24 10° NW 20:53:15 72° SW 20:58:12 10° SSE visible
02 Sep - 08:53:02 10° SW 08:56:38 40° NW 09:00:09 10° NNE daylight
02 Sep - 19:15:35 10° N 19:18:58 19° NE 19:22:25 10° E visible
02 Sep - 20:55:04 10° WNW 20:59:31 35° SW 21:04:02 10° SSE visible
03 Sep - 07:19:36 10° S 07:22:29 20° SE 07:25:18 10° E daylight
03 Sep - 09:00:16 10° W 09:02:52 18° NW 09:05:26 10° N daylight
03 Sep - 19:20:47 10° NNW 19:25:12 37° NE 19:29:46 10° ESE visible
03 Sep - 21:02:30 10° W 21:05:48 18° SW 21:09:08 10° S visible
04 Sep - 07:25:02 10° SSW 07:28:46 46° SE 07:32:23 10° NE daylight
04 Sep - 19:26:38 10° NNW 19:31:26 78° NE 19:36:23 10° SE visible
